Tracking 25709 objects as of 23-May-2022
HD Live streaming from Space Station
objects crossing your sky now

COSMOS 2251 DEB

Track COSMOS 2251 DEB now!
10-day predictions


NORAD ID: 33823
Int'l Code: 1993-036BQ
Perigee: 760.4 km
Apogee: 1,081.0 km
Inclination: 73.8 °
Period: 103.3 minutes
Semi major axis: 7291 km
RCS: 0.0432 m2 (small)
Launch date: June 16, 1993
Source: Commonwealth of Independent States (former USSR) (CIS)
Launch site: PLESETSK MISSILE AND SPACE COMPLEX (PKMTR)

Note: This is SATELLITE DEBRIS
aabbcc
Your satellite tracking list
Your tracking list is empty




NASA's NSSDC Master Catalog

Two Line Element Set (TLE):
1 33823U 93036BQ  22142.74108181  .00001271  00000-0  79816-3 0  9996
2 33823  73.8129 257.8910 0219865 247.0512 233.8392 13.94315560674638
Source of the keplerian elements: AFSPC